This is the latest recevied weather packets stored in our database for station/object DK9HI-WX. If no packets are shown the sender has not sent any weather packets the latest 10 day(s).
| Time | Temp. | Humidity | Pressure | Rain* | Wind** | Luminosity | Snow |
|---|---|---|---|---|---|---|---|
| 1777296163 | 18.33° C | 38% | 1024.6 hPa | - | - | - | - |
| 1777295563 | 17.78° C | 39% | 1024.6 hPa | - | - | - | - |
| 1777294963 | 17.22° C | 40% | 1024.7 hPa | - | - | - | - |
| 1777294363 | 17.22° C | 42% | 1024.7 hPa | - | - | - | - |
| 1777293763 | 17.22° C | 41% | 1024.8 hPa | - | - | - | - |
| 1777293163 | 17.22° C | 45% | 1024.8 hPa | - | - | - | - |
| 1777292565 | 16.67° C | 46% | 1024.9 hPa | - | - | - | - |
| 1777291963 | 16.11° C | 47% | 1024.9 hPa | - | - | - | - |
| 1777291364 | 16.11° C | 48% | 1024.9 hPa | - | - | - | - |
| 1777290763 | 16.11° C | 50% | 1025 hPa | - | - | - | - |
| 1777290163 | 16.11° C | 49% | 1025.1 hPa | - | - | - | - |
| 1777289562 | 16.11° C | 48% | 1025.1 hPa | - | - | - | - |
| 1777288963 | 15.56° C | 51% | 1025.2 hPa | - | - | - | - |
| 1777288362 | 15° C | 55% | 1025.3 hPa | - | - | - | - |
| 1777287762 | 15° C | 54% | 1025.3 hPa | - | - | - | - |
| 1777287162 | 14.44° C | 57% | 1025.3 hPa | - | - | - | - |
| 1777286562 | 14.44° C | 58% | 1025.4 hPa | - | - | - | - |
| 1777285962 | 14.44° C | 55% | 1025.5 hPa | - | - | - | - |
| 1777285362 | 13.89° C | 61% | 1025.6 hPa | - | - | - | - |
| 1777284762 | 13.89° C | 60% | 1025.7 hPa | - | - | - | - |
| 1777284162 | 13.33° C | 61% | 1026 hPa | - | - | - | - |
| 1777283565 | 12.78° C | 62% | 1025.9 hPa | - | - | - | - |
| 1777282962 | 12.78° C | 64% | 1026 hPa | - | - | - | - |
| 1777282362 | 12.22° C | 65% | 1026 hPa | - | - | - | - |
| 1777281762 | 12.22° C | 67% | 1026.1 hPa | - | - | - | - |
* Rain since midnight (hover to see other rain measurements)
** Current wind speed in m/s (hover to see current wind gust speed)